Valentine, NE

2:51 PM CDT on May 29, 2017 (GMT -0500)
Miller Field

Weather History for KVTN - September, 2013

Change the Weather History Date:

Tuesday, September 17, 2013

  Actual Average Record
Temperature  
Mean Temperature 71 °F 62 °F  
Max Temperature 85 °F 77 °F 101 °F (1895)
Min Temperature 57 °F 47 °F 26 °F (1981)
Degree Days  
Heating Degree Days 0 5  
Month to date heating degree days 15 57  
Since 1 July heating degree days 18 82  
Cooling Degree Days 6 2  
Month to date cooling degree days 141 66  
Year to date cooling degree days 934 802  
Growing Degree Days 20 (Base 50)    
Moisture  
Dew Point 58 °F    
Average Humidity 67    
Maximum Humidity 90    
Minimum Humidity 44    
Precipitation  
Precipitation 0.00 in 0.05 in 0.83 in (1917)
Month to date precipitation 0.51 0.92  
Year to date precipitation 18.15 17.03  
Snow  
Snow 0.00 in 0.10 in 0.00 in ()
Month to date snowfall 0.0 0.2  
Since 1 July snowfall 0.0 0.2  
Since 1 September snowfall 0.0 0.2  
Snow Depth 0.00 in    
Sea Level Pressure  
Sea Level Pressure 29.87 in    
Wind  
Wind Speed 14 mph (South)    
Max Wind Speed 22 mph    
Max Gust Speed 25 mph    
Visibility 10 miles    
Events      
T = Trace of Precipitation, MM = Missing Value Source: NWS Daily Summary

Daily Weather History Graph

Daily Weather History Graph

Search for Another Location

Airport or City:

Trip Planner

Search our weather history database for the weather conditions in past years. The results will help you decide how hot, cold, wet, or windy it might be!

Date:

Astronomy

Sep. 17, 2013 Rise Set
Actual Time 7:24 AM CDT 7:47 PM CDT
Civil Twilight 6:56 AM CDT 8:16 PM CDT
Nautical Twilight 6:22 AM CDT 8:49 PM CDT
Astronomical Twilight 5:48 AM CDT 9:23 PM CDT
Moon 6:37 PM CDT (9/17) 5:19 AM CDT (9/17)
Length of Visible Light 13h 20m
Length of Day
12h 23m
Waxing Gibbous, 96% of the Moon is Illuminated
Sep 17
Waxing Gibbous
Sep 19
Full
Sep 26
Last Quarter
Oct 4
New
Oct 11
First Quarter

Hourly Weather History & Observations

Time (CDT) Temp. Heat Index Dew Point Humidity Pressure Visibility Wind Dir Wind Speed Gust Speed Precip Events Conditions
12:52 AM 57.9 °F - 52.0 °F 81% 30.06 in 10.0 mi South 15.0 mph - N/A   Overcast
1:23 AM 57.2 °F - 53.6 °F 88% 30.07 in 10.0 mi South 16.1 mph - N/A   Overcast
1:52 AM 57.9 °F - 53.1 °F 84% 30.04 in 10.0 mi South 15.0 mph 21.9 mph N/A   Overcast
2:06 AM 57.2 °F - 53.6 °F 88% 30.04 in 10.0 mi South 16.1 mph - N/A   Overcast
2:52 AM 57.9 °F - 53.1 °F 84% 30.01 in 10.0 mi South 17.3 mph 24.2 mph N/A   Overcast
3:52 AM 57.0 °F - 53.1 °F 87% 29.98 in 10.0 mi South 15.0 mph - N/A   Overcast
4:23 AM 57.2 °F - 53.6 °F 88% 29.99 in 10.0 mi South 16.1 mph 23.0 mph N/A   Overcast
4:52 AM 57.9 °F - 53.1 °F 84% 29.96 in 10.0 mi South 13.8 mph - N/A   Overcast
5:52 AM 57.9 °F - 54.0 °F 87% 29.95 in 10.0 mi South 15.0 mph - N/A   Overcast
6:52 AM 59.0 °F - 55.0 °F 87% 29.94 in 10.0 mi South 12.7 mph - N/A   Overcast
7:52 AM 59.0 °F - 55.9 °F 90% 29.93 in 10.0 mi South 9.2 mph - N/A   Overcast
8:52 AM 60.1 °F - 57.0 °F 90% 29.91 in 10.0 mi South 11.5 mph - N/A   Overcast
9:52 AM 62.1 °F - 57.9 °F 86% 29.91 in 10.0 mi South 15.0 mph - N/A   Overcast
10:52 AM 64.0 °F - 59.0 °F 84% 29.89 in 10.0 mi South 12.7 mph - N/A   Overcast
11:52 AM 66.9 °F - 59.0 °F 76% 29.87 in 10.0 mi South 18.4 mph 21.9 mph N/A   Overcast
12:01 PM 68.0 °F - 59.0 °F 73% 29.89 in 10.0 mi South 16.1 mph - N/A   Overcast
12:52 PM 72.0 °F - 60.1 °F 66% 29.84 in 10.0 mi South 19.6 mph 25.3 mph N/A   Mostly Cloudy
1:05 PM 73.4 °F - 60.8 °F 65% 29.86 in 10.0 mi South 19.6 mph 24.2 mph N/A   Scattered Clouds
1:52 PM 75.9 °F - 60.1 °F 58% 29.80 in 10.0 mi South 18.4 mph 25.3 mph N/A   Clear
2:52 PM 79.0 °F - 61.0 °F 54% 29.76 in 10.0 mi South 17.3 mph 24.2 mph N/A   Clear
3:52 PM 82.9 °F 83.7 °F 62.1 °F 49% 29.74 in 10.0 mi South 16.1 mph - N/A   Clear
4:52 PM 84.0 °F 84.4 °F 61.0 °F 46% 29.71 in 10.0 mi South 12.7 mph - N/A   Clear
5:52 PM 84.9 °F 84.8 °F 60.1 °F 43% 29.70 in 10.0 mi South 13.8 mph - N/A   Clear
6:52 PM 82.9 °F 83.3 °F 61.0 °F 47% 29.69 in 10.0 mi South 11.5 mph - N/A   Clear
7:52 PM 77.0 °F - 62.1 °F 60% 29.70 in 10.0 mi SSE 11.5 mph - N/A   Clear
8:52 PM 73.9 °F - 63.0 °F 68% 29.71 in 10.0 mi South 12.7 mph 19.6 mph N/A   Clear
9:52 PM 73.9 °F - 63.0 °F 68% 29.70 in 10.0 mi South 17.3 mph - N/A   Clear
10:52 PM 73.0 °F - 64.0 °F 73% 29.70 in 10.0 mi South 15.0 mph - N/A   Clear
11:52 PM 71.1 °F - 64.0 °F 78% 29.70 in 10.0 mi South 12.7 mph - N/A   Clear